Dewpoint
46 46 46 47 47 47 47 47 48 48 48 48 48 48 48 48 48 48 48 48 48 48 48 48 48 48 48 48 48 47 47 47 47 47 47 47 47 47 47 47 46 46 45 44 43 42 39 33 23 15 14 15 16 17 18 23 24 23 21 21 21 21 21 38 46 49 50 50 51 51 52 51 52 52 52 52 52 52 52 52 53 53 54 54 54 55 55 56 56 56 57 57 57 57 58 58 58 59 59 59 59 59 59
46 46 46 46 46 47 47 47 48 48 48 48 48 48 48 48 48 48 48 48 48 48 48 48 48 48 48 47 47 47 47 47 47 46 46 47 47 47 46 46 46 45 44 43 42 40 38 30 21 15 15 15 16 17 19 22 23 22 21 20 20 21 25 41 47 49 50 50 51 51 51 51 51 52 52 52 52 52 52 52 52 53 53 53 54 54 55 55 55 56 56 56 57 57 57 57 58 58 58 59 59 59 59
46 46 46 46 46 46 47 47 47 47 48 48 48 48 48 48 48 48 48 48 48 48 48 48 48 47 47 47 46 46 46 46 46 46 46 46 46 46 46 45 45 44 43 42 41 39 36 31 23 16 15 16 16 18 20 22 22 21 21 20 20 22 31 42 47 48 49 50 50 51 51 51 51 51 52 52 52 52 52 52 52 52 52 53 53 53 54 54 55 55 55 56 56 56 57 57 57 57 58 58 58 58 59
46 46 46 46 46 46 46 47 47 47 47 48 48 48 48 48 48 48 48 48 47 47 47 47 47 47 47 46 46 45 45 45 45 45 45 45 45 45 45 45 44 43 42 41 40 38 32 30 24 18 15 15 16 18 21 23 22 21 20 19 20 25 38 44 47 48 49 50 50 51 51 51 51 51 51 51 51 52 52 52 52 52 52 52 52 53 53 53 54 54 55 55 55 56 56 57 57 57 57 58 58 58 58
46 46 46 46 46 46 46 47 47 47 47 47 48 47 47 47 47 47 47 47 47 47 47 47 47 46 46 45 45 45 45 45 45 45 45 44 44 44 44 44 43 43 41 40 39 36 27 26 22 17 15 16 16 18 21 23 23 22 20 18 21 28 42 45 47 48 49 49 50 50 51 51 51 51 51 51 51 51 51 51 52 52 52 52 52 52 52 53 53 53 54 54 55 55 55 56 56 57 57 57 57 57 58
45 45 45 45 46 46 46 46 46 47 47 47 47 47 47 47 47 47 47 47 47 46 46 46 46 46 45 45 44 44 44 44 44 44 44 44 44 43 43 43 43 42 40 39 38 35 29 21 16 14 15 15 16 17 19 22 22 21 19 18 23 32 42 45 47 48 48 49 50 50 50 50 50 50 50 50 50 50 50 51 51 51 51 52 52 52 52 52 52 52 53 53 54 54 55 55 56 56 56 57 57 57 57
45 45 45 45 45 46 46 46 46 46 46 47 47 47 47 47 47 46 46 46 46 46 46 45 45 45 44 44 43 43 43 43 43 43 43 43 43 43 43 42 42 41 39 38 37 35 30 19 16 15 15 15 16 16 16 19 20 20 18 18 27 38 43 45 47 48 48 49 49 50 50 50 50 50 50 50 50 50 50 50 50 51 51 51 51 51 51 52 52 52 52 52 53 53 54 54 55 55 56 56 57 57 57
44 44 44 44 45 45 46 46 46 46 46 46 46 46 46 46 46 46 46 46 45 45 45 45 44 44 43 43 43 43 43 43 43 43 43 43 43 42 42 42 41 40 39 37 36 35 32 22 17 16 15 16 16 17 17 16 16 18 18 20 29 39 43 45 47 48 48 48 49 49 49 49 49 49 49 49 49 49 49 50 50 50 51 51 51 51 51 51 51 51 52 52 52 52 53 54 54 55 55 56 56 57 57
43 43 43 44 44 45 45 45 45 45 45 45 45 45 45 45 45 45 45 45 45 44 44 44 44 43 43 43 42 42 42 42 42 42 42 42 42 42 42 41 40 39 38 36 35 34 33 24 18 16 16 16 16 18 20 16 16 16 15 22 30 38 43 45 46 47 48 48 48 48 49 49 49 49 49 49 49 49 49 49 50 50 50 50 50 50 50 50 51 51 51 51 52 52 52 53 53 54 54 55 55 56 57
43 43 43 43 43 44 44 44 44 44 44 44 44 44 44 44 44 44 44 44 44 44 43 43 43 43 42 42 41 41 41 41 41 41 41 41 41 41 41 40 39 38 37 35 34 33 32 23 17 16 16 15 16 18 21 16 17 18 16 25 34 40 43 45 46 47 48 48 48 48 48 48 48 48 48 48 48 48 49 49 49 49 49 50 50 50 50 50 50 50 50 50 51 51 52 52 52 53 54 54 55 55 56
42 42 42 42 43 43 43 43 43 43 43 43 43 43 43 43 43 43 43 43 43 43 43 43 42 41 41 40 40 40 40 40 40 40 40 40 40 40 40 39 39 37 36 34 33 31 30 21 17 15 15 15 17 18 17 17 18 18 16 27 36 42 43 44 46 46 47 47 48 48 48 48 48 48 48 48 48 48 48 49 49 49 49 49 49 49 49 49 50 50 50 50 50 51 51 52 52 52 53 54 54 55 56
41 41 41 42 42 42 43 43 43 43 43 43 43 43 43 43 43 43 43 43 43 42 42 42 41 40 40 39 39 39 39 39 39 39 39 39 39 39 39 39 38 36 34 33 31 29 27 19 16 15 15 15 16 16 16 17 17 16 17 30 38 41 43 44 45 46 46 47 47 47 47 47 47 47 47 48 48 48 48 48 48 48 48 48 48 49 49 49 49 50 50 50 50 50 51 51 52 52 52 53 54 54 55
40 40 41 40 40 41 42 42 42 42 42 42 42 42 42 42 42 42 42 41 41 41 41 40 40 39 39 38 38 38 38 38 38 38 39 39 39 39 38 38 37 35 33 31 28 25 22 16 14 14 15 16 15 15 18 18 16 17 22 35 40 41 43 44 45 45 46 46 46 46 46 46 46 47 47 47 47 48 48 48 48 48 48 48 48 48 48 49 49 49 50 50 50 50 50 51 51 52 52 52 53 54 54
39 39 39 39 39 39 40 41 41 41 40 40 41 41 41 41 41 41 41 40 40 40 40 39 39 38 38 37 36 36 35 36 36 37 37 37 38 37 37 36 35 34 31 28 23 18 16 14 13 14 15 15 15 16 21 18 16 19 30 36 40 41 43 43 44 45 45 45 45 45 45 45 46 46 46 47 47 47 47 47 47 48 48 48 48 48 48 48 49 49 49 50 50 50 50 50 51 51 52 52 52 53 54
38 38 38 37 38 38 39 40 40 40 39 39 39 39 40 40 40 40 39 39 39 39 39 38 38 37 37 36 35 34 33 33 34 34 35 35 36 36 35 35 34 32 30 23 17 13 13 12 13 14 15 15 14 15 19 17 17 22 34 37 40 41 42 43 43 44 44 44 44 44 44 45 45 45 46 46 46 47 47 47 47 47 47 47 48 48 48 48 48 49 49 49 50 50 50 50 50 51 51 52 52 52 53
36 37 37 36 36 37 38 39 39 39 38 38 38 38 38 39 39 39 38 38 38 38 38 37 37 36 35 34 33 32 29 30 31 31 32 33 34 34 34 33 32 30 25 17 14 12 12 12 12 14 16 14 14 15 17 16 19 26 36 38 40 41 42 43 43 44 44 44 44 44 44 44 44 45 45 45 46 46 46 46 46 47 47 47 47 48 48 48 48 48 49 49 50 50 50 50 50 51 51 51 52 52 52
34 35 35 35 35 35 36 37 37 37 37 36 36 37 37 37 37 37 37 37 37 37 36 36 35 35 34 33 32 29 21 22 24 26 29 31 32 32 32 31 29 25 18 15 13 12 12 12 12 14 15 14 13 14 17 16 21 30 36 38 40 41 42 42 43 43 43 43 43 43 43 44 44 44 44 45 45 45 45 46 46 46 46 47 47 47 47 48 48 48 48 49 49 50 50 50 50 51 51 51 51 52 52
31 33 33 34 34 34 34 35 36 36 35 35 34 35 35 35 35 35 35 35 35 35 35 34 34 34 33 31 28 22 13 13 15 17 23 26 29 29 29 28 24 19 14 13 13 12 12 12 12 14 14 13 12 14 18 17 24 32 36 38 39 41 41 42 42 43 43 43 43 43 43 43 44 44 44 44 45 45 45 45 46 46 46 46 47 47 47 47 48 48 48 48 49 49 50 50 51 51 51 51 51 52 52
29 31 32 32 32 32 33 33 34 34 34 33 33 33 33 34 34 34 34 34 34 34 34 33 32 31 30 29 23 16 11 11 12 13 15 20 23 25 25 22 18 15 13 13 12 12 12 12 13 14 14 13 13 14 18 18 25 33 36 38 39 40 41 41 42 42 43 43 43 43 43 43 43 43 44 44 44 44 45 45 45 46 46 46 46 46 47 47 47 48 48 48 49 49 49 50 50 51 51 51 51 51 52
25 26 29 30 30 30 30 31 32 32 33 31 31 30 31 32 32 32 32 32 32 32 32 31 30 28 27 23 16 12 11 11 12 12 13 15 17 18 18 16 14 13 13 12 12 12 12 13 13 14 13 13 13 15 16 19 26 33 35 37 39 39 40 41 42 42 42 42 42 43 43 43 43 43 43 43 44 44 44 45 45 45 45 46 46 46 46 46 47 47 48 48 48 48 49 49 50 50 51 51 51 51 51
17 18 22 23 25 25 25 25 27 28 29 30 26 22 22 25 27 28 30 28 28 29 30 29 23 17 17 16 13 11 11 11 12 13 14 14 14 14 14 14 14 14 13 13 13 13 13 14 14 14 13 13 13 14 14 21 27 33 35 36 38 39 39 40 41 42 42 42 42 42 43 43 43 43 43 43 43 44 44 44 45 45 45 45 45 45 46 46 46 47 47 47 48 48 48 49 49 50 50 50 50 50 51
13 14 15 15 16 18 18 18 19 21 23 27 21 14 12 16 18 21 25 19 19 21 22 20 15 11 12 12 12 11 11 11 12 13 14 14 14 14 14 14 14 14 13 13 13 14 14 14 14 14 13 13 12 13 14 24 29 32 34 35 37 38 39 39 41 41 42 42 42 42 42 42 43 43 43 43 43 43 44 44 44 44 45 45 45 45 45 45 46 46 46 47 47 48 48 48 49 49 49 50 50 50 50
14 14 13 13 14 14 14 15 15 16 18 24 20 13 11 12 13 15 16 12 12 12 13 12 12 11 11 11 11 11 11 13 14 15 14 14 13 13 14 13 13 13 13 13 13 14 14 14 14 14 13 13 12 12 14 24 29 31 33 34 35 37 38 39 40 41 42 42 42 42 42 42 42 42 43 43 43 43 43 43 44 44 44 44 45 45 45 45 45 46 46 46 46 47 47 48 48 48 49 49 49 49 50
13 13 13 14 14 14 14 14 14 15 16 20 17 13 12 12 11 11 12 12 12 12 12 11 11 11 11 11 11 11 11 13 16 18 15 13 13 13 13 12 12 12 12 12 13 13 14 14 14 14 13 12 12 12 15 24 29 30 32 33 34 36 37 39 40 40 41 41 41 42 42 42 42 42 43 43 43 43 43 43 43 44 44 44 44 44 45 45 45 45 45 45 46 46 47 47 48 48 48 49 49 49 49
14 13 13 14 14 14 14 14 15 15 15 16 15 13 12 12 11 11 12 12 12 12 12 12 12 11 11 11 11 11 12 12 13 14 12 12 12 13 13 12 12 12 12 12 12 13 14 14 13 13 12 12 11 12 16 24 28 30 31 32 34 35 37 38 39 40 40 41 41 41 42 42 42 43 43 43 43 43 43 43 43 43 44 44 44 44 44 45 45 45 45 45 45 46 46 47 47 48 48 48 49 49 49
14 14 13 14 14 14 14 15 15 15 15 16 15 14 12 12 12 12 12 12 13 12 12 12 12 11 11 11 11 12 12 12 12 12 12 13 13 13 13 12 12 12 12 12 12 13 14 13 13 12 12 11 11 12 15 23 27 29 30 31 33 34 36 37 38 39 40 40 41 41 41 42 42 43 43 43 43 43 43 43 43 43 43 43 44 44 44 44 45 45 45 45 45 45 46 46 47 47 48 48 48 49 49
14 14 13 13 14 14 14 15 15 15 16 16 16 14 12 12 12 12 12 12 12 12 12 12 12 11 11 11 12 12 12 12 12 13 13 14 13 13 13 12 12 12 12 12 12 13 13 12 12 12 11 11 10 11 12 20 25 28 29 31 32 34 35 36 37 38 39 40 40 41 41 42 42 42 43 43 43 43 43 43 43 43 43 43 43 44 44 44 44 44 45 45 45 45 46 46 46 47 47 48 48 48 49
13 13 13 14 14 14 14 15 15 16 16 16 15 14 13 12 12 12 12 12 12 12 14 13 12 12 12 12 12 12 12 12 13 14 14 14 14 13 13 13 12 12 12 12 12 12 12 12 12 11 11 11 11 10 11 16 22 27 29 30 32 33 34 35 36 37 38 39 40 40 41 41 42 42 43 43 43 43 43 43 43 43 43 43 43 43 43 44 44 44 45 45 45 45 46 46 46 47 47 48 48 48 48
13 13 14 14 14 14 14 15 15 15 16 15 14 14 13 12 12 12 12 12 12 12 12 12 12 12 12 12 12 13 12 14 15 15 15 15 14 13 13 13 13 12 13 12 12 12 12 12 11 11 11 11 11 11 11 14 21 26 28 30 31 32 33 34 35 36 37 39 39 40 40 41 41 41 42 42 43 43 43 43 43 43 43 43 43 43 43 43 44 44 45 45 45 46 46 46 46 47 47 48 48 48 48
12 13 14 13 14 14 14 14 14 15 15 15 14 14 13 13 13 12 12 12 12 12 12 12 12 12 12 12 12 13 14 17 17 16 15 14 13 13 13 13 13 13 13 13 12 12 12 12 12 11 11 11 11 11 11 12 19 25 28 29 30 31 32 34 34 35 37 38 39 39 40 40 40 41 41 42 42 42 43 43 43 43 43 43 43 43 43 43 44 44 44 45 45 46 46 46 47 47 48 48 48 48 49
12 13 14 14 14 14 14 14 14 15 15 15 14 13 13 13 12 12 12 12 12 12 12 12 12 12 12 12 12 13 15 17 17 15 14 14 13 13 13 14 14 14 13 13 12 12 12 12 12 12 12 11 11 11 11 11 16 22 27 28 29 30 31 33 34 35 36 37 38 39 39 39 40 40 41 41 42 42 42 42 42 42 42 42 43 43 43 43 43 43 44 44 45 46 47 47 48 48 48 49 49 49 49
13 13 14 14 14 14 14 15 15 14 15 14 14 13 13 13 13 13 13 13 12 12 12 12 12 12 12 12 13 14 15 17 16 15 14 13 13 14 16 17 16 14 13 12 12 12 12 12 12 12 12 11 11 11 12 12 12 16 24 27 29 30 30 32 33 34 35 36 37 38 39 39 39 40 40 41 41 41 41 42 42 42 42 42 42 43 43 43 43 43 43 44 45 45 46 47 48 48 48 49 50 50 50
14 14 14 13 13 14 14 14 14 14 14 14 14 13 13 13 14 14 13 13 12 12 12 12 12 12 12 12 13 14 15 15 15 14 13 13 13 13 14 13 13 12 12 12 12 12 12 12 12 12 12 12 12 12 12 12 12 13 20 25 27 29 30 31 32 33 34 34 36 37 38 38 39 39 40 40 40 41 41 41 41 41 41 42 42 43 43 43 43 43 43 44 44 45 46 46 47 47 48 48 49 50 51
13 13 13 13 13 14 14 14 14 14 15 14 14 13 12 13 13 13 12 12 12 12 12 12 12 12 12 13 13 14 15 15 15 14 14 14 14 13 13 13 13 13 13 12 12 12 12 12 12 12 12 12 12 12 12 12 12 12 13 20 25 27 29 30 30 31 32 33 34 35 36 37 38 39 39 39 39 40 40 40 40 41 41 41 42 42 43 43 43 43 44 44 44 44 45 45 45 46 46 47 48 49 50
12 13 13 13 13 14 15 14 14 15 15 14 14 13 12 12 12 12 12 12 12 12 12 12 12 13 13 14 14 15 15 15 14 14 14 14 14 14 13 13 13 13 13 13 12 12 12 12 13 13 13 13 12 12 12 12 13 13 13 20 24 26 28 29 29 30 30 31 33 34 35 36 37 37 38 38 39 39 39 39 40 40 40 41 41 42 43 43 43 43 44 44 44 45 45 45 46 46 45 46 47 48 50
12 13 13 13 13 14 19 17 16 15 14 14 13 13 12 12 12 13 13 14 13 13 13 14 14 15 16 16 16 15 15 15 15 14 14 14 14 14 13 13 13 13 13 13 13 13 13 13 13 13 13 13 13 13 13 13 13 13 13 16 19 22 24 25 26 28 29 30 31 32 34 34 35 36 37 37 38 38 38 39 39 39 40 40 41 42 42 43 43 43 44 44 45 45 46 46 47 47 46 46 46 48 50
13 13 13 13 13 13 15 15 15 14 14 13 13 13 13 13 13 14 14 14 13 13 14 15 16 18 19 17 16 15 15 15 15 15 15 14 14 14 14 14 13 13 13 14 14 15 14 14 14 14 13 13 13 13 13 13 13 13 13 14 15 16 18 19 21 24 27 29 30 31 32 33 34 34 35 36 37 37 38 38 39 39 39 40 41 41 42 43 43 43 44 44 45 46 46 47 47 47 47 47 47 48 50
13 13 13 13 13 13 14 14 14 14 14 13 13 13 13 14 14 14 14 13 13 14 15 14 16 17 19 16 15 15 16 16 15 15 14 14 14 14 14 14 14 14 14 14 15 15 14 14 14 14 14 13 13 13 13 13 13 13 13 14 14 14 15 15 16 19 23 26 29 30 31 32 32 33 34 35 36 37 37 38 38 39 39 39 40 41 41 42 43 43 43 44 44 45 45 46 46 47 47 47 48 48 49
13 13 13 13 13 13 13 14 14 14 14 14 14 14 14 14 14 14 14 13 14 15 16 15 14 15 15 15 14 15 19 18 16 15 14 14 14 14 13 14 15 14 14 15 15 15 15 14 14 14 14 13 13 13 13 13 13 13 14 14 14 14 15 15 15 16 17 21 25 28 30 30 31 32 33 34 35 36 37 37 38 38 38 39 39 40 40 41 42 43 43 43 43 43 43 44 45 45 46 46 47 48 49
13 13 13 13 14 14 14 14 14 14 14 14 14 14 14 14 14 14 14 13 14 15 15 14 14 14 14 15 15 15 16 16 15 14 14 14 14 13 13 15 15 15 15 16 16 15 15 14 14 14 13 13 13 13 14 14 14 14 14 14 14 14 14 15 16 17 16 16 19 23 28 29 30 31 32 33 34 35 36 37 37 37 38 38 39 39 40 41 41 42 43 43 43 43 43 44 44 45 45 46 47 48 49
13 13 13 13 14 14 15 15 15 15 15 14 14 14 14 14 14 14 14 13 13 14 15 15 15 14 14 16 15 14 14 14 14 14 14 14 13 13 13 14 14 15 15 16 16 16 15 14 14 14 13 14 14 14 14 14 14 14 14 14 13 14 16 18 20 19 16 16 16 18 24 27 29 30 31 32 33 34 35 35 35 36 36 37 38 39 39 40 41 42 43 43 43 43 44 45 45 46 46 47 48 48 49
13 13 13 14 14 14 15 14 15 15 15 15 14 14 14 14 14 14 14 13 13 14 15 16 16 15 14 14 14 14 14 15 15 14 14 14 13 13 14 14 14 15 15 17 16 15 15 14 14 14 14 15 15 15 14 14 14 13 13 13 13 14 17 20 19 17 16 16 16 16 19 25 28 29 30 31 32 33 33 34 34 34 35 36 37 38 39 40 41 42 43 43 44 44 45 46 46 47 47 48 48 48 49
12 12 13 13 14 14 14 14 15 16 15 15 15 14 14 14 14 14 14 13 14 14 15 16 16 15 14 14 14 14 14 15 15 14 14 14 14 14 14 14 14 15 15 16 15 15 14 15 16 17 18 16 16 14 14 13 13 13 13 13 13 14 16 17 16 16 16 16 16 16 16 21 25 28 29 30 30 31 31 31 32 33 34 35 36 38 39 40 41 42 43 43 44 44 45 46 46 47 47 48 48 48 49
15 14 13 13 14 14 14 16 16 16 16 15 14 14 14 14 14 14 14 14 14 14 14 15 15 15 15 14 14 14 15 15 15 14 14 14 14 14 14 14 15 15 15 15 15 15 15 15 17 19 20 17 15 14 13 13 13 14 14 14 13 14 15 16 16 16 17 17 17 16 16 17 20 23 26 27 28 29 29 30 30 31 33 34 36 37 38 39 40 41 42 43 43 44 45 45 46 46 47 48 48 48 49
18 17 15 14 14 14 14 15 16 16 15 15 14 14 14 14 14 15 15 15 15 14 14 15 15 16 15 15 15 15 16 15 15 14 14 15 15 15 14 15 15 15 15 15 15 15 15 16 18 18 17 16 15 14 13 15 16 15 14 14 13 14 16 16 16 17 17 17 17 16 16 16 16 17 19 21 22 23 25 27 29 30 32 34 35 36 38 39 39 41 42 43 43 43 44 45 45 46 47 47 48 48 48
18 18 16 16 15 14 14 14 15 16 15 15 14 14 14 14 14 15 16 16 15 15 15 15 15 16 16 17 17 17 16 15 15 16 17 16 15 15 16 16 16 16 15 15 15 15 15 18 17 16 16 15 15 15 14 17 17 15 13 13 13 14 16 16 16 16 16 16 16 16 16 15 15 15 15 16 16 16 19 25 28 30 31 32 34 35 37 37 38 39 41 42 42 43 43 44 45 46 47 47 48 48 48
17 17 16 16 15 14 14 13 14 15 15 14 14 14 14 14 14 15 15 15 15 15 16 16 16 16 16 19 19 17 15 15 15 16 16 16 16 16 19 17 16 16 15 15 15 15 16 17 16 15 14 16 16 14 13 15 15 14 12 12 13 14 16 16 16 16 16 15 16 16 16 15 15 15 15 15 15 15 16 21 25 28 30 31 33 34 35 36 37 38 39 41 42 43 43 43 44 45 46 47 47 48 48
18 16 15 15 14 14 14 13 13 14 14 14 14 14 13 14 14 14 14 15 15 16 20 20 18 16 16 16 15 15 14 14 15 15 15 15 15 15 17 16 16 15 16 16 15 16 19 16 15 15 14 14 13 12 12 12 13 12 12 13 13 13 14 15 15 15 15 14 14 15 16 15 15 14 14 15 15 15 15 16 21 25 28 30 31 32 34 34 35 37 38 40 41 42 43 43 44 45 46 47 47 48 48
20 20 16 15 14 14 13 12 15 16 16 16 16 16 14 14 14 15 17 17 17 16 16 18 18 18 16 14 14 14 14 14 15 16 16 15 14 14 14 14 14 14 14 15 15 16 20 16 14 13 13 12 12 12 12 12 12 12 12 13 12 11 11 12 13 13 14 13 13 14 15 15 15 15 15 15 15 15 16 16 17 19 24 27 30 31 32 33 34 35 37 39 40 42 43 43 44 45 46 47 47 48 48
17 20 18 16 15 14 13 12 14 16 16 15 16 16 16 16 17 19 21 19 16 14 13 14 16 18 17 15 14 14 14 14 15 16 16 14 14 13 13 13 13 13 13 13 14 15 17 14 13 12 10 11 12 12 12 12 12 12 12 12 11 11 11 11 12 13 13 14 14 15 15 15 16 16 16 16 16 16 16 16 16 17 20 22 25 27 28 31 33 34 35 38 39 41 42 43 44 45 46 46 47 47 48
15 17 17 16 15 14 12 12 13 14 14 18 18 18 19 20 21 20 17 14 12 12 12 13 14 16 18 15 14 14 14 15 15 15 14 14 15 14 14 13 12 11 9 10 12 15 16 12 10 9 10 11 12 12 12 12 12 12 12 12 12 11 11 12 12 13 14 14 14 15 15 15 16 16 16 16 16 16 16 16 16 17 19 19 20 21 23 26 30 34 35 37 39 40 41 42 43 44 45 46 47 47 47
14 15 16 15 14 13 12 12 12 13 18 21 19 16 15 14 13 13 13 12 12 12 12 13 13 14 15 16 16 15 14 15 16 16 15 15 15 15 15 15 12 8 7 8 9 11 12 10 10 11 10 10 11 11 12 12 12 12 12 12 12 11 11 12 13 14 15 14 15 15 15 16 17 18 17 17 16 16 16 16 17 18 20 20 21 23 25 28 30 33 36 37 39 39 40 42 43 44 45 45 46 46 46
14 13 13 13 12 12 12 12 12 13 18 19 17 16 14 13 12 12 12 12 12 13 13 13 14 14 14 16 16 16 16 16 16 16 17 16 16 15 14 13 11 9 9 8 7 6 6 7 8 10 11 11 11 11 11 11 12 12 12 11 11 12 12 13 13 14 14 14 15 16 16 17 18 18 18 17 16 16 17 17 18 19 20 21 24 25 26 29 32 35 36 37 39 39 40 41 42 43 44 44 45 45 45
13 13 12 12 11 11 12 12 12 12 15 16 15 14 13 12 12 12 12 12 12 13 14 18 17 15 14 13 13 13 15 17 17 16 16 16 16 15 14 12 12 12 12 10 7 3 3 6 8 10 11 11 11 10 10 11 11 10 11 11 11 12 13 13 13 13 13 14 15 16 16 17 18 18 18 17 17 17 17 19 19 20 22 24 25 26 27 29 32 35 36 37 38 39 39 40 42 43 43 44 45 45 46
13 12 12 11 11 11 11 12 12 13 14 14 13 13 13 12 12 12 12 12 12 13 13 15 16 15 14 13 13 13 12 17 17 16 16 16 16 16 15 15 15 14 12 9 7 5 5 8 10 10 10 10 10 10 11 11 11 12 13 13 12 11 11 12 12 13 13 14 15 16 16 16 16 17 17 17 18 19 19 20 21 22 23 25 26 28 30 32 34 34 34 34 36 38 39 41 42 43 43 44 45 46 47
12 12 11 11 11 11 11 12 12 12 13 13 13 13 13 13 12 12 12 12 12 12 12 14 13 13 14 14 13 13 13 14 15 16 17 17 19 20 19 16 14 12 10 8 7 8 10 12 11 10 8 9 10 11 11 11 11 11 14 13 11 10 10 11 12 12 13 14 15 16 16 17 17 17 17 18 19 20 21 22 23 24 24 25 26 28 29 30 30 31 32 33 34 37 39 41 42 43 44 45 45 46 47
11 11 11 11 11 11 11 12 12 12 12 14 14 13 13 13 12 12 12 12 12 12 12 13 13 12 12 13 14 13 13 13 16 18 19 18 20 21 19 17 16 14 14 12 12 13 13 13 11 8 7 9 11 11 11 11 10 11 12 11 10 9 10 11 11 12 13 14 15 16 16 18 18 17 17 18 19 20 22 23 24 24 24 25 25 26 28 29 30 31 32 33 34 34 37 39 41 43 44 44 45 46 47
11 10 10 11 11 11 11 11 12 12 12 15 15 14 13 13 13 13 13 13 13 13 12 13 14 14 14 14 14 14 13 13 13 15 18 18 18 18 18 18 18 19 19 18 18 17 15 13 11 9 8 9 9 10 11 10 10 10 10 10 10 10 10 10 11 12 13 14 15 16 16 17 17 17 17 18 19 21 21 22 23 24 24 24 25 26 28 30 31 33 33 33 33 34 35 39 41 42 44 44 45 46 47
11 11 11 11 11 11 11 11 12 12 12 17 18 17 15 14 14 14 14 14 14 14 13 14 14 16 19 16 14 14 13 12 13 14 15 16 16 16 16 16 17 18 20 19 18 16 15 13 12 11 10 9 8 9 10 10 10 10 9 9 9 10 10 10 10 12 12 14 15 16 16 16 16 17 17 18 20 21 21 21 22 23 24 25 26 27 29 31 32 32 32 32 33 34 35 37 39 42 43 44 45 46 47
12 12 11 11 11 11 11 11 12 12 13 18 20 19 16 15 15 14 14 14 17 19 16 14 14 15 18 15 14 14 13 12 13 14 15 16 16 16 16 16 16 16 18 17 16 15 15 14 14 13 12 10 9 8 8 9 9 9 9 9 9 9 10 10 10 12 12 14 15 16 16 16 17 17 17 18 19 20 21 21 22 24 24 25 27 28 30 31 31 30 30 31 33 34 35 37 39 41 43 44 45 46 47
14 15 12 11 11 11 11 11 12 12 14 19 21 20 17 16 15 15 15 14 16 17 16 14 13 14 16 15 14 13 14 14 14 14 15 16 16 17 19 19 18 16 17 16 15 14 14 14 14 14 13 13 11 9 7 7 8 8 8 9 9 9 9 10 11 11 12 13 14 16 16 16 16 17 17 17 18 19 20 21 22 23 25 26 28 29 31 30 29 28 27 29 31 34 34 36 38 40 42 43 45 45 46